Wind_Speed
26 26 26 25 25 26 26 25 25 26 26 25 25 25 24 23 23 22 22 21 21 21 22 21 21 21 20 19 19 18 18 19 19 19 18 18 18 18 18 19 19 19 18
26 26 26 26 26 26 26 26 26 26 25 25 26 26 26 25 25 23 23 23 23 22 22 22 21 21 21 21 20 20 20 20 20 20 19 19 19 19 18 18 19 19 19
26 26 26 26 26 25 26 26 26 26 26 26 26 26 26 26 26 26 25 24 24 23 23 23 22 22 23 22 22 22 22 21 21 20 20 20 19 20 19 18 19 19 19
26 25 25 26 26 26 26 26 27 27 27 27 27 27 27 27 26 26 26 26 25 24 23 23 23 24 24 24 24 23 22 21 20 20 20 20 21 20 20 20 19 19 19
26 26 26 26 26 26 26 26 27 26 26 27 27 27 27 27 26 26 26 26 25 24 23 23 24 24 24 24 24 24 23 22 21 21 20 21 21 21 21 20 20 20 20
26 26 26 26 26 26 26 26 26 26 26 27 27 27 26 26 25 26 26 26 26 25 24 24 24 24 24 24 24 24 24 23 22 22 21 21 21 22 22 21 21 20 20
26 26 26 26 26 26 26 26 26 26 26 26 25 25 24 24 24 24 24 25 25 26 26 25 25 25 25 26 25 24 25 25 23 23 23 22 22 22 22 21 21 21 21
27 26 27 26 26 26 26 26 26 26 26 26 27 27 27 27 27 26 25 25 24 25 25 24 24 25 26 26 26 25 25 25 25 24 23 23 22 22 22 22 21 21 22
26 27 27 26 26 27 27 27 27 27 27 28 28 28 27 27 27 27 26 26 25 25 25 25 25 25 25 25 25 25 25 25 25 24 24 23 23 23 23 22 22 22 22
26 26 26 26 27 27 27 27 27 27 28 28 28 28 28 27 27 26 26 26 26 26 26 25 25 26 26 25 25 25 25 25 25 25 24 23 22 22 22 22 22 22 22
27 27 26 26 27 28 28 28 27 28 29 29 28 28 28 28 28 27 26 25 26 27 27 26 26 26 26 26 26 26 26 26 25 25 24 23 22 22 22 21 21 21 22
28 27 27 27 27 27 27 27 27 27 27 28 27 27 27 27 27 27 26 26 26 27 27 27 27 27 27 26 26 26 26 26 25 25 24 23 23 23 22 21 21 22 22
27 27 26 26 26 26 26 25 26 26 26 25 25 25 25 26 26 26 26 26 26 27 27 28 28 27 26 26 25 25 26 26 25 24 24 23 23 24 23 22 22 22 23
27 26 26 25 25 25 25 24 24 24 24 24 24 24 25 25 25 25 25 26 26 26 26 27 27 27 26 25 25 25 25 25 25 25 24 25 24 25 25 24 23 23 23
27 26 26 25 25 24 24 24 24 24 23 23 23 23 24 24 24 24 25 25 26 26 25 25 25 25 25 25 25 24 24 25 25 25 24 25 25 25 24 24 24 24 24
27 27 26 26 25 24 24 23 23 23 23 23 23 23 23 24 24 23 24 24 25 25 25 24 24 25 25 24 24 24 25 24 24 25 25 25 26 26 26 25 25 24 25
27 27 27 26 26 25 24 24 24 24 23 23 23 23 22 22 23 23 24 24 25 24 24 23 24 24 24 24 23 24 24 25 25 25 25 25 25 25 26 26 25 25 25
28 27 27 26 26 26 25 25 24 24 24 24 24 23 23 23 23 24 23 23 24 24 23 23 23 23 24 24 24 24 24 25 25 25 25 25 25 25 25 25 25 25 24
28 27 27 26 26 26 26 26 25 24 23 23 23 23 23 23 24 24 23 23 23 23 23 23 23 24 24 24 24 23 24 23 23 23 23 24 24 24 24 24 24 24 24
27 27 26 25 25 25 25 25 24 24 23 23 23 24 24 23 23 23 23 23 22 23 23 23 23 24 24 24 24 24 23 23 22 21 22 22 22 23 24 24 24 24 23
26 26 25 25 24 24 24 24 24 24 24 23 23 24 24 23 22 23 23 22 22 22 22 22 23 23 23 23 23 23 23 23 23 22 21 21 22 22 22 23 23 23 23
25 24 24 23 23 22 23 23 23 23 23 23 23 23 24 23 23 23 23 22 22 22 22 22 22 23 23 22 23 23 24 24 23 22 22 22 22 22 22 22 22 23 22
25 23 23 22 22 22 22 22 22 22 22 23 23 23 23 23 22 22 21 21 21 21 21 21 21 21 22 22 23 23 23 24 23 23 22 22 22 22 22 21 21 21 21
24 23 22 22 21 21 21 20 20 20 21 22 22 22 22 22 21 20 20 19 19 19 20 20 20 20 20 21 22 23 23 23 22 23 23 22 21 21 21 21 21 20 20
23 22 21 21 20 20 20 20 20 21 21 21 21 21 21 20 19 18 17 17 17 18 18 18 18 18 19 20 21 22 22 22 22 22 21 21 20 20 20 20 20 20 20
22 21 20 20 20 20 20 20 20 20 20 19 19 19 18 17 16 16 16 15 16 16 17 17 18 18 19 19 20 21 22 22 22 22 22 21 20 20 20 21 21 19 19
Wind_Direction
291 288 287 286 284 283 281 280 279 279 279 277 278 277 276 277 278 276 275 273 271 268 268 267 266 268 267 267 269 270 271 271 273 273 272 274 274 275 273 272 273 272 271
290 289 287 286 285 283 281 281 280 278 276 276 276 275 275 276 275 276 277 273 270 268 266 264 265 265 265 265 268 270 271 272 271 271 271 272 274 276 275 272 271 270 270
291 290 287 286 286 284 282 281 279 278 277 276 276 276 274 273 273 273 273 272 269 268 264 261 262 264 265 266 268 269 271 272 270 269 268 270 272 275 274 274 272 269 268
290 290 288 286 286 284 282 280 278 278 278 277 277 276 274 272 272 272 270 268 268 266 264 262 262 263 264 266 267 267 268 269 270 269 268 269 271 274 273 273 271 268 266
291 290 288 287 286 285 283 281 279 278 278 277 276 276 274 271 270 270 268 267 265 264 263 262 263 263 265 266 265 265 266 267 269 271 270 268 270 273 273 272 269 266 267
289 289 287 287 287 287 284 281 280 279 278 277 276 274 273 271 270 268 266 264 263 263 263 262 262 262 264 267 268 267 266 266 267 270 269 268 269 270 271 269 266 265 265
291 289 287 287 287 287 285 282 281 281 280 278 278 275 274 273 272 271 267 264 262 262 263 264 263 263 265 267 268 268 265 266 267 269 270 270 269 269 269 267 264 262 263
292 291 289 287 287 286 284 282 281 280 279 278 276 276 274 274 274 276 273 267 266 264 263 264 267 266 266 266 266 267 267 266 266 267 270 272 270 269 267 265 262 261 263
292 292 292 291 288 286 285 282 281 280 279 278 277 275 275 276 273 272 272 270 268 267 265 265 266 266 266 266 265 266 267 266 266 265 266 269 268 269 269 266 264 264 265
295 294 293 293 291 290 287 284 282 280 280 278 277 276 276 276 274 273 271 268 266 266 265 265 267 268 268 265 265 265 266 265 264 266 267 269 268 267 267 267 265 264 264
296 296 296 294 294 292 289 287 284 281 280 280 277 275 274 273 272 270 270 268 267 266 265 265 267 269 267 264 264 264 264 264 263 264 264 265 265 265 265 266 267 265 264
296 297 297 297 296 295 293 290 286 283 281 279 277 276 274 273 272 270 268 268 268 267 265 265 266 267 266 265 263 262 261 261 262 261 261 260 261 263 264 264 265 266 265
298 298 298 297 297 296 295 293 289 285 283 280 278 278 277 276 275 270 268 267 265 266 266 266 265 264 263 262 261 260 259 259 259 259 259 258 260 263 264 265 265 266 267
298 298 298 298 297 296 295 293 290 287 286 282 280 279 277 276 275 272 269 267 266 266 267 266 264 262 260 259 259 258 257 257 257 258 259 258 259 262 263 264 265 265 265
297 298 297 296 296 294 294 292 290 288 286 284 282 280 279 277 275 273 270 269 269 267 266 266 264 260 259 257 257 256 256 256 256 257 258 258 258 259 261 263 263 264 264
296 296 295 294 294 293 292 291 290 288 287 285 283 281 279 278 276 274 272 271 269 268 266 263 260 258 257 256 257 258 257 256 256 256 257 258 258 259 261 263 263 263 263
294 295 294 293 292 292 292 291 290 289 288 286 285 282 280 279 276 275 274 272 270 268 266 263 260 257 255 255 257 258 258 259 259 258 259 261 259 259 262 264 264 263 264
293 293 293 292 291 290 290 290 289 288 287 287 285 282 280 281 279 277 276 272 269 266 265 263 261 257 254 255 257 258 258 259 259 258 260 262 262 261 261 262 262 262 263
293 293 292 291 290 289 288 287 286 286 286 286 285 282 281 282 281 278 276 273 269 266 265 264 261 257 254 255 256 257 259 259 260 259 260 263 264 263 261 261 261 262 263
293 293 291 290 289 289 289 288 286 286 285 285 285 283 282 281 279 277 275 272 270 267 265 263 259 256 255 254 255 256 258 258 259 260 260 261 262 263 264 263 263 263 264
292 293 291 290 289 287 288 288 288 287 284 284 285 285 283 280 278 277 275 272 270 268 266 261 258 256 255 254 253 254 255 257 258 260 261 261 261 262 263 263 263 263 263
291 291 289 289 289 289 290 291 291 289 286 285 285 285 284 280 277 274 272 272 271 268 265 261 259 257 255 256 253 252 253 255 257 258 258 260 261 262 263 263 263 263 261
291 290 289 289 289 289 290 292 291 289 286 287 288 287 286 283 280 275 272 272 270 267 264 263 261 259 256 255 254 252 252 253 255 256 256 258 260 261 262 263 264 264 262
291 290 289 288 288 288 289 290 290 289 289 289 289 289 288 284 280 275 273 271 268 265 262 261 261 261 256 254 253 253 252 253 254 255 255 257 259 260 261 260 262 262 262
290 289 288 287 286 288 290 291 291 290 292 292 289 289 288 282 277 273 271 268 267 264 261 260 261 260 257 253 252 252 252 253 253 254 255 256 258 258 258 259 260 259 261
290 289 286 285 286 288 291 292 293 293 294 294 292 291 288 282 277 272 268 266 263 259 259 260 261 261 258 254 253 252 252 253 253 255 257 257 258 258 258 259 261 261 262
Height
5825 5823 5821 5820 5819 5817 5816 5815 5814 5813 5812 5811 5811 5810 5809 5808 5808 5807 5807 5806 5806 5806 5806 5806 5806 5806 5806 5806 5806 5806 5806 5805 5805 5805 5804 5804 5803 5803 5802 5801 5801 5801 5801
5817 5815 5814 5813 5811 5809 5808 5807 5806 5805 5805 5804 5803 5802 5801 5801 5801 5800 5800 5800 5800 5800 5800 5800 5799 5799 5800 5800 5800 5800 5800 5799 5799 5799 5799 5798 5798 5797 5796 5796 5795 5795 5795
5810 5808 5806 5805 5802 5801 5801 5799 5798 5797 5797 5796 5795 5794 5794 5793 5793 5793 5793 5792 5792 5792 5793 5793 5793 5793 5794 5794 5794 5793 5793 5793 5792 5792 5793 5792 5792 5792 5791 5790 5790 5790 5789
5803 5801 5799 5797 5795 5794 5793 5792 5791 5790 5789 5788 5787 5786 5786 5785 5785 5785 5784 5784 5785 5785 5785 5785 5786 5786 5787 5787 5787 5787 5787 5787 5786 5786 5786 5786 5786 5785 5785 5784 5784 5784 5783
5797 5794 5792 5790 5788 5787 5785 5784 5783 5781 5780 5779 5778 5778 5777 5777 5777 5777 5776 5776 5777 5777 5777 5778 5779 5779 5779 5779 5780 5780 5780 5780 5780 5780 5780 5780 5779 5779 5779 5778 5778 5778 5777
5790 5787 5785 5783 5781 5779 5777 5776 5775 5773 5772 5771 5769 5769 5769 5769 5769 5768 5768 5768 5769 5769 5770 5771 5771 5772 5772 5772 5772 5773 5773 5773 5774 5773 5773 5773 5773 5773 5772 5772 5772 5772 5772
5782 5780 5778 5776 5774 5772 5770 5768 5767 5766 5764 5763 5761 5760 5760 5760 5760 5760 5760 5761 5761 5762 5763 5763 5764 5764 5765 5765 5765 5765 5766 5766 5767 5767 5766 5766 5766 5766 5766 5766 5765 5765 5765
5775 5773 5771 5769 5766 5764 5762 5760 5759 5757 5756 5755 5754 5753 5752 5752 5752 5752 5753 5753 5753 5754 5755 5755 5756 5756 5757 5757 5757 5758 5758 5758 5759 5759 5759 5759 5759 5759 5759 5759 5759 5759 5759
5768 5766 5763 5761 5759 5756 5754 5752 5751 5749 5748 5747 5746 5745 5745 5744 5744 5744 5744 5745 5746 5746 5747 5748 5748 5748 5749 5749 5749 5750 5750 5750 5751 5751 5752 5752 5752 5752 5752 5752 5752 5752 5752
5761 5759 5756 5753 5751 5748 5746 5744 5742 5741 5739 5738 5737 5737 5736 5736 5736 5736 5736 5737 5737 5738 5739 5739 5740 5740 5740 5741 5741 5741 5742 5742 5743 5743 5744 5744 5744 5745 5745 5745 5745 5745 5745
5754 5751 5748 5745 5743 5740 5737 5735 5733 5732 5731 5730 5729 5728 5728 5728 5728 5728 5728 5728 5729 5730 5731 5731 5731 5732 5732 5732 5733 5733 5734 5734 5735 5736 5736 5737 5737 5738 5738 5738 5738 5738 5738
5746 5743 5741 5738 5735 5732 5729 5726 5725 5723 5722 5721 5721 5720 5719 5719 5719 5719 5720 5720 5720 5721 5721 5722 5722 5723 5723 5724 5724 5725 5726 5726 5727 5728 5729 5730 5730 5731 5731 5731 5731 5731 5731
5739 5736 5733 5730 5727 5725 5722 5719 5717 5716 5714 5713 5713 5712 5712 5711 5711 5711 5711 5711 5711 5712 5712 5713 5713 5714 5714 5715 5715 5716 5717 5718 5720 5720 5721 5722 5723 5723 5723 5724 5724 5724 5723
5731 5729 5726 5723 5721 5718 5715 5713 5711 5709 5707 5706 5705 5705 5704 5703 5703 5702 5702 5702 5702 5703 5703 5704 5704 5705 5705 5706 5707 5708 5709 5710 5711 5713 5713 5714 5715 5716 5716 5716 5716 5716 5716
5724 5721 5719 5716 5714 5711 5709 5706 5704 5702 5701 5699 5698 5697 5696 5696 5695 5694 5694 5694 5694 5694 5694 5695 5695 5696 5697 5698 5700 5701 5702 5703 5704 5705 5706 5707 5707 5708 5708 5708 5709 5709 5709
5716 5713 5711 5709 5706 5704 5702 5700 5697 5696 5694 5692 5691 5690 5688 5688 5687 5686 5686 5685 5685 5685 5685 5686 5687 5688 5689 5690 5691 5693 5694 5695 5696 5697 5698 5698 5699 5700 5700 5700 5701 5701 5701
5708 5705 5703 5701 5698 5696 5694 5692 5690 5689 5687 5685 5684 5682 5681 5680 5679 5678 5677 5677 5677 5677 5678 5678 5679 5680 5681 5683 5684 5685 5686 5687 5688 5689 5689 5690 5691 5691 5692 5692 5692 5693 5693
5700 5697 5695 5692 5690 5688 5686 5684 5682 5681 5679 5677 5676 5675 5674 5672 5671 5670 5669 5669 5669 5669 5670 5671 5671 5672 5674 5675 5676 5677 5678 5679 5680 5681 5682 5682 5683 5683 5683 5684 5684 5685 5685
5691 5688 5686 5684 5682 5680 5677 5675 5674 5672 5671 5670 5668 5667 5666 5665 5663 5663 5662 5662 5661 5662 5663 5663 5664 5665 5666 5668 5669 5670 5671 5672 5672 5673 5674 5674 5675 5675 5675 5676 5676 5676 5677
5682 5679 5677 5675 5673 5671 5669 5667 5666 5664 5663 5662 5660 5659 5658 5657 5656 5655 5654 5654 5654 5654 5655 5655 5656 5657 5658 5660 5661 5662 5663 5665 5665 5666 5666 5666 5667 5667 5667 5667 5668 5668 5669
5674 5671 5669 5667 5665 5663 5661 5659 5658 5657 5655 5654 5653 5651 5650 5649 5648 5647 5646 5646 5646 5647 5647 5647 5648 5649 5651 5652 5653 5655 5656 5657 5658 5659 5659 5659 5660 5660 5660 5660 5660 5661 5661
5665 5663 5661 5659 5657 5655 5653 5652 5650 5648 5647 5646 5645 5643 5641 5640 5640 5639 5639 5638 5638 5639 5639 5640 5641 5642 5643 5644 5646 5647 5648 5649 5650 5651 5652 5652 5653 5653 5653 5653 5653 5653 5653
5657 5655 5653 5651 5650 5648 5646 5644 5643 5641 5640 5638 5637 5635 5634 5632 5631 5631 5630 5630 5630 5631 5631 5632 5633 5634 5635 5637 5638 5639 5641 5642 5643 5644 5644 5645 5645 5646 5646 5646 5646 5646 5646
5648 5646 5645 5643 5642 5641 5639 5637 5636 5634 5633 5631 5629 5628 5626 5625 5624 5623 5623 5623 5623 5623 5624 5625 5626 5627 5628 5629 5630 5632 5633 5634 5635 5636 5637 5638 5638 5638 5639 5639 5639 5639 5639
5641 5639 5637 5636 5635 5633 5632 5630 5629 5627 5626 5624 5622 5620 5619 5617 5617 5616 5616 5616 5616 5617 5618 5618 5619 5620 5621 5622 5623 5625 5626 5627 5628 5629 5629 5630 5631 5631 5632 5632 5632 5632 5633
5633 5631 5630 5629 5628 5626 5625 5624 5622 5620 5619 5617 5615 5614 5612 5611 5610 5610 5610 5610 5610 5611 5611 5612 5613 5614 5614 5615 5616 5617 5618 5620 5621 5622 5622 5623 5624 5624 5625 5625 5625 5626 5626